Location: Boston
(42.3580°N, 71.0600°W)
Time: 01:19:24
(UTC-05:00)

Envisat - Pass Details

Date: 14 October 2017
Orbit: 764 x 766 km, 98.2° (Epoch: 13 December)

Event Time Altitude Azimuth Distance (km) Brightness Sun altitude
Exits shadow 20:20:04 60° 26° (NNE) 874 3.1 -25.9°
Drops below altitude 10° 20:24:26 10° 352° (N) 2,314 5.7 -26.7°
Sets 20:26:45 0° 350° (N) 3,245 6.5 -27.1°
